Find Local Weather

World > North America > United States > Michigan

Cannonsburg, Michigan Regional Weather

Lat: 43.05N, Lon: 85.47W
Wx Zone: MIZ057
Warning FLW WEATHER ALERT - (More Info. Click Here) Warning
Feedback
Expires:201806200300;;806435
ASUS43 KDTX 200201
RWRMI 
MICHIGAN HOURLY REGIONAL WEATHER ROUNDUP
NATIONAL WEATHER SERVICE DETROIT/PONTIAC MI
1000 PM EDT TUE JUN 19 2018

NOTE: "FAIR" INDICATES FEW OR NO CLOUDS BELOW 12,000 FEET WITH NO
SIGNIFICANT WEATHER AND/OR OBSTRUCTION TO VISIBILITY.


MIZ043>046-050>051-056>058-064>065-071>073-077>080-200300-
SOUTHWEST LOWER MICHIGAN
  
CITY           SKY/WX    TMP DP  RH WIND       PRES   REMARKS
BATTLE CREEK   CLOUDY    71  56  58 E8        29.93F                  
BENTON HARBOR  CLOUDY    72  66  81 E7        29.88S                  
BIG RAPIDS     CLOUDY    64  61  88 CALM      29.98R                  
COLDWATER      CLOUDY    69  56  62 E3        29.93S                  
HOLLAND        CLOUDY    72  62  71 E7        29.91F                  
GRAND RAPIDS   CLOUDY    72  61  68 E9        29.93F                  
IONIA          CLOUDY    68  62  80 NE8       29.95R                  
KALAMAZOO      FAIR      70  58  65 VRB3      29.92F                  
LUDINGTON      RAIN      63  60  88 E5        29.96F                  
MARSHALL       CLOUDY    69  55  61 CALM      29.93S                  
MOUNT PLEASANT MOCLDY    63  58  84 NE3       29.99F                  
MUSKEGON       CLOUDY    71  63  75 NE6       29.93S                  
SOUTH HAVEN    FAIR      71  65  80 E6        29.89S                  
$$

SKY/WX - Weather  TMP - Temperature  DP - Dewpoint  RH - Relative Humidity
WIND - Wind Direction/Speed PRES - Barometric Pressure